Regional Weather Roundup
Issued by NWS

Home | Current Version | Previous Version | Graphics & Text | Print | Product List | Glossary On
Versions: 1 2 3 4 5 6 7 8 9 10 11 12 13 14 15 16 17 18 19 20 21 22 23 24 25 26 27 28
000
ASUS45 KCYS 200210
RWRWY

WYOMING REGIONAL WEATHER ROUNDUP
NATIONAL WEATHER SERVICE CHEYENNE WY
800 PM MDT SAT AUG 19 2017

NOTE:  "FAIR" INDICATES FEW OR NO CLOUDS BELOW 12,000 FEET
WITH NO SIGNIFICANT WEATHER AND/OR OBSTRUCTIONS TO VISIBILITY.

WYZ001-200300-
YELLOWSTONE NATIONAL PARK

CITY           SKY/WX    TMP DP  RH WIND       PRES   REMARKS
LK YELLOWSTONE   N/A     57  37  47 CALM      30.24R
W YELLOWSTONE  NOT AVBL

$$
WYZ002>013-054>058-071-098>099-200300-
NORTHERN WYOMING

CITY           SKY/WX    TMP DP  RH WIND       PRES   REMARKS
JACKSON        FAIR      71  29  21 SW3       30.13S
CODY           FAIR      74  33  22 N12       30.00R
GREYBULL       FAIR      86  28  12 N3        29.86S
WORLAND        FAIR      82  32  16 N8        29.88R
SHERIDAN       FAIR      68  47  46 CALM      29.93S
BUFFALO        MOCLDY    75  32  20 NW7       30.01R HAZE
GILLETTE       FAIR      76  33  21 NE9       29.95R
HULETT         FAIR      73  36  25 E6        29.98S
NEWCASTLE      FAIR      81  34  18 NE10      29.91S

$$
WYZ014>020-022>026-101>103-200300-
CENTRAL WYOMING

CITY           SKY/WX    TMP DP  RH WIND       PRES   REMARKS
BIG PINEY      FAIR      70  28  21 NW10      30.18S
PINEDALE       FAIR      68  27  21 W8        30.20R
DUBOIS         FAIR      68  16  13 NW14G20   30.16R
LANDER           N/A    N/A N/A N/A MISG      30.03R
RIVERTON       FAIR      78  22  12 NW14      30.00R
CASPER         FAIR      73  37  27 N3        29.97S
DOUGLAS        FAIR      74  46  36 S5        29.96S

$$
WYZ021-027>030-104>119-200300-
SOUTHERN WYOMING

CITY           SKY/WX    TMP DP  RH WIND       PRES   REMARKS
EVANSTON       FAIR      74  31  20 W9        30.20R
FORT BRIDGER   FAIR      76  23  13 NW8       30.22R
ROCK SPRINGS   FAIR      74  28  18 SW15G23   30.16R
RAWLINS        FAIR      75  13   9 W12       30.14R
SARATOGA       FAIR      68  28  22 W6        30.17S
LARAMIE        FAIR      69  25  19 NW13      30.18R
CHEYENNE       FAIR      78  25  14 NW8       30.08R
TORRINGTON     FAIR      76  40  27 E10       29.90R
PINE BLUFFS    FAIR      77  32  19 CALM      30.01R

$$




USA.gov is the U.S. government's official web portal to all federal, state and local government web resources and services.